Location: Sabalos
(43.2860°N, 0.1414°E)
Time: 22:26:54
(UTC+00:00)

Cosmos 1758 Rocket - Visible Passes

Search period start: 18 June 2021 00:00
Search period end: 28 June 2021 00:00
Orbit: 601 x 636 km, 82.5° (Epoch: 18 June)

Date Brightness Start Highest point End Pass type
(mag) Time Alt. Az. Time Alt. Az. Time Alt. Az.
18 Jun 3.9 00:51:27 48° WSW 00:51:57 50° WNW 00:56:17 10° N visible
18 Jun 4.9 23:31:28 26° E 23:31:37 26° E 23:35:18 10° NNE visible
19 Jun 4.9 01:08:37 26° W 01:09:23 28° WNW 01:13:13 10° NNW visible
19 Jun 4.0 23:48:38 48° E 23:48:46 48° E 23:53:02 10° NNE visible
20 Jun 5.6 01:25:46 15° W 01:26:54 16° WNW 01:29:42 10° NNW visible
21 Jun 3.4 00:05:46 80° S 00:06:01 89° NW 00:10:26 10° N visible
21 Jun 5.6 22:45:45 16° E 22:45:54 16° E 22:48:30 10° NE visible
22 Jun 4.1 00:22:54 46° W 00:23:20 48° WNW 00:27:37 10° N visible
22 Jun 4.8 23:02:52 27° E 23:02:58 27° E 23:06:42 10° NNE visible
23 Jun 5.0 00:40:01 25° W 00:40:46 27° WNW 00:44:31 10° NNW visible
23 Jun 3.9 23:19:59 50° E 23:20:07 50° E 23:24:23 10° NNE visible
24 Jun 5.7 00:57:07 14° W 00:58:18 15° WNW 01:00:55 10° NNW visible
24 Jun 3.4 23:37:04 77° SSW 23:37:22 85° W 23:41:47 10° N visible
25 Jun 5.5 22:17:00 16° E 22:17:14 16° E 22:19:57 10° NE visible
25 Jun 4.2 23:54:09 43° W 23:54:42 45° WNW 23:58:56 10° N visible
26 Jun 4.7 22:34:04 28° E 22:34:19 29° E 22:38:05 10° NNE visible
27 Jun 5.1 00:11:12 23° W 00:12:09 25° WNW 00:15:48 10° NNW visible
27 Jun 3.7 22:51:07 51° ESE 22:51:28 53° E 22:55:44 10° NNE visible
